STARLINK-34247, 65083

Orbit data source: Space-Track

STARLINK-34247, 65083 is a payload satellite owned by SpaceX/Seattle (US) in LEO that was launched on Mon, 04 Aug 2025 UTC via an FALCON 9 launch vehicle from the Air Force Eastern Test Range (AFETR). Payload-class satellites include a variety of spacecraft equipped with specific instruments for various scientific and technological missions. These include communications satellites like Starlink; space stations such as the ISS; scientific satellites like the Hubble; Earth observation satellites from companies like Planet Labs, Umbra, and HawkEye 360; GPS; miniature CubeSats for education and research; and military/defense satellites.

Loading next visibility...
Identifier
65083, 2025-167F
Orbit
LEO
Country
Flag of USUS
Related business
Manufacturer
SpaceX/Seattle
Mission
Operational Commercial Communications
Bus & Motor
STARLINK V2MO, Unknown motor
Mass
575 kg wet, ~530 kg dry
Launch date (UTC)
2025-08-04 (11 months ago)
Launch vehicle
FALCON 9
Launch site
Air Force Eastern Test Range (AFETR)
Object type
Payload
Rocket body
Debris
Shape & HBR
Box + 2 Pan, 17.7 m
Radar Cross Section
36.964 m², Large (>1 m²)

Expand to show TLE details & history
Last TLE update: 2 days ago

TLE from 2 days ago
0 STARLINK-34247
1 65083U 25167F   26173.51024623  .00010766  00000-0  37502-3 0  9995
2 65083  53.1594 257.3258 0001123  81.1849 278.9279 15.30206081 49565
Epoch: 2026-06-22T12:14Z
TLE epoch observation values (Epoch: 2026-06-22T12:14:45.274Z)
Latitude
-0°
Longitude
162.94203°
Altitude
475.977 km
Speed
7.629 km/s
True Right ascension
17h 09m 18s
True Declination
0° 00' 00"
Sunlit
Object was in full shadow at epoch
Visualization orbit readout
Latitude
Unknown
Longitude
Unknown
Altitude
Unknown
Speed
Unknown
Apparent Right ascension
Unknown
Apparent Declination
Unknown
Sunlit
N/A
Visualization observer readout
Local Sidereal Time
13:48:58
Azimuth
Unknown
Elevation
Unknown
Doppler factor
Unknown
Orbital elements
Apogee altitude
476.223 km
Perigee altitude
474.684 km
Semi-major axis
6,853.59 km
Eccentricity
0.00011
Inclination
53.1594°
RAAN
257.3258°
Arg. of periapsis
81.1849°
True anomaly
278.91519°
Mean anomaly
278.9279°
Eccentric anomaly
278.92154°
Mean motion
3.8253 °/min
Orbital period
94.11 mins
BSTAR
0.00037502
Loading maneuver chart data...
Computing Atmospheric mass density...
Loading historical data...
Loading historical data...
Loading historical data...
Loading historical data...
Loading historical data...
Loading historical data...
Loading historical data...

Documentation

Showing up to 5 results
|